Date String (YYYY-MM-DD hh:mm:ss) UTC,Instrument flags,absolute air pressure of the measurement (hPa),sample flow rate (lpm),inlet stack bypass flow (lpm),air temperature of the measurement (°C),ambient temperature measured by the external sensor (°C),aerosol sample conditioner tube jacket temperature (°C),OPC LED temperature (°C),internal box temperature (°C),relative humidity of the measurement (%),span deviation,mass concentration of particles derived from Lorenz-Mie calculation of OPC scattering (μg/m³),mass concentration of particles derived from Lorenz-Mie calculation of OPC scattering (μg/m³),mass concentration of particles derived from Lorenz-Mie calculation of OPC scattering (μg/m³)
DateTimeUTC,F1_M11,P_M11,Q1_M11,Q2_M11,T1_M11,T2_M11,T3_M11,T4_M11,T5_M11,U1_M11,ZSPAN_M11,X2_M11,X0_M11,X1_M11
2024-03-12 03:00:00,SystemResetWarning,0824.3,5.00,000.00,023.5,022.6,000.0,032.1,025.3,08.4,0000.0,0005.04,0016.59,0002.75
2024-03-12 03:01:00,SystemResetWarning,0824.3,5.01,000.00,023.5,022.6,000.0,032.1,025.3,08.8,0000.0,0005.03,0016.32,0002.75
2024-03-12 03:02:00,SystemResetWarning,0824.2,5.00,000.00,023.5,022.6,000.0,032.1,025.3,08.1,0000.0,0005.13,0016.74,0002.78
2024-03-12 03:03:00,SystemResetWarning,0824.3,4.99,000.00,023.5,022.6,000.0,032.0,025.3,08.1,0000.0,0005.21,0016.60,0002.79
2024-03-12 03:04:00,SystemResetWarning,0824.2,5.01,000.00,023.5,022.6,000.0,032.0,025.3,08.3,0000.0,0005.27,0016.54,0002.80
2024-03-12 03:05:00,SystemResetWarning,0824.2,4.99,000.00,023.4,022.6,000.0,032.0,025.3,08.3,0000.0,0005.20,0016.42,0002.78
2024-03-12 03:06:00,SystemResetWarning,0824.2,4.99,000.00,023.4,022.6,000.0,032.0,025.3,08.0,0000.0,0005.12,0016.74,0002.75
2024-03-12 03:07:00,SystemResetWarning,0824.2,4.99,000.00,023.4,022.6,000.0,032.0,025.3,07.9,0000.0,0005.06,0016.63,0002.74
2024-03-12 03:08:00,SystemResetWarning,0824.2,5.01,000.00,023.4,022.6,000.0,032.0,025.3,07.8,0000.0,0005.04,0017.04,0002.75
2024-03-12 03:09:00,SystemResetWarning,0824.2,5.01,000.00,023.4,022.6,000.0,032.0,025.3,07.9,0000.0,0005.03,0017.80,0002.74
2024-03-12 03:10:00,SystemResetWarning,0824.2,5.00,000.00,023.4,022.6,000.0,032.0,025.2,08.0,0000.0,0004.99,0017.48,0002.71
2024-03-12 03:11:00,SystemResetWarning,0824.2,4.99,000.00,023.4,022.6,000.0,032.0,025.2,08.2,0000.0,0005.02,0016.66,0002.70
2024-03-12 03:12:00,SystemResetWarning,0824.2,4.99,000.00,023.4,022.6,000.0,032.0,025.2,08.4,0000.0,0005.04,0017.39,0002.67
2024-03-12 03:13:00,SystemResetWarning,0824.1,5.00,000.00,023.4,022.6,000.0,032.0,025.2,08.7,0000.0,0004.98,0017.09,0002.65
2024-03-12 03:14:00,SystemResetWarning,0824.1,5.01,000.00,023.4,022.6,000.0,032.0,025.2,08.8,0000.0,0004.87,0016.37,0002.64
2024-03-12 03:15:00,SystemResetWarning,0824.1,5.01,000.00,023.4,022.6,000.0,032.0,025.2,08.8,0000.0,0004.82,0016.42,0002.63
2024-03-12 03:16:00,SystemResetWarning,0824.1,5.00,000.00,023.4,022.6,000.0,032.0,025.2,09.5,0000.0,0004.78,0017.32,0002.61
2024-03-12 03:17:00,SystemResetWarning,0824.2,5.00,000.00,023.4,022.6,000.0,032.0,025.2,09.8,0000.0,0004.80,0017.46,0002.61
2024-03-12 03:18:00,SystemResetWarning,0824.3,5.00,000.00,023.4,022.6,000.0,032.0,025.2,10.0,0000.0,0004.79,0017.84,0002.59
2024-03-12 03:19:00,SystemResetWarning,0824.3,4.99,000.00,023.4,022.6,000.0,031.9,025.2,10.0,0000.0,0004.80,0017.95,0002.58
2024-03-12 03:20:00,SystemResetWarning,0824.3,5.01,000.00,023.4,022.6,000.0,031.9,025.2,10.1,0000.0,0004.79,0016.96,0002.56
2024-03-12 03:21:00,SystemResetWarning,0824.3,5.01,000.00,023.4,022.6,000.0,031.9,025.2,10.0,0000.0,0004.81,0017.05,0002.57
2024-03-12 03:22:00,SystemResetWarning,0824.3,5.01,000.00,023.4,022.6,000.0,031.9,025.2,10.0,0000.0,0004.83,0018.05,0002.57
2024-03-12 03:23:00,SystemResetWarning,0824.3,4.99,000.00,023.4,022.6,000.0,031.9,025.2,10.2,0000.0,0004.84,0016.85,0002.58
2024-03-12 03:24:00,SystemResetWarning,0824.3,4.99,000.00,023.4,022.6,000.0,031.9,025.2,10.3,0000.0,0004.83,0017.73,0002.57
2024-03-12 03:25:00,SystemResetWarning,0824.4,5.00,000.00,023.3,022.6,000.0,031.9,025.2,10.5,0000.0,0004.82,0018.44,0002.57
2024-03-12 03:26:00,SystemResetWarning,0824.4,5.02,000.00,023.3,022.5,000.0,031.9,025.2,10.7,0000.0,0004.84,0018.87,0002.58
2024-03-12 03:27:00,SystemResetWarning,0824.4,5.01,000.00,023.3,022.5,000.0,031.9,025.2,10.9,0000.0,0004.86,0019.07,0002.59
2024-03-12 03:28:00,SystemResetWarning,0824.3,4.99,000.00,023.3,022.5,000.0,031.9,025.2,11.0,0000.0,0004.86,0019.39,0002.59
2024-03-12 03:29:00,SystemResetWarning,0824.3,5.00,000.00,023.3,022.5,000.0,031.9,025.2,11.2,0000.0,0004.85,0019.67,0002.60
2024-03-12 03:30:00,SystemResetWarning,0824.3,5.00,000.00,023.3,022.5,000.0,031.9,025.2,11.3,0000.0,0004.86,0021.26,0002.58
2024-03-12 03:31:00,SystemResetWarning,0824.3,5.00,000.00,023.3,022.5,000.0,031.9,025.2,11.5,0000.0,0004.86,0021.80,0002.59
2024-03-12 03:32:00,SystemResetWarning,0824.3,5.01,000.00,023.3,022.5,000.0,031.9,025.2,11.8,0000.0,0004.79,0021.24,0002.59
2024-03-12 03:33:00,SystemResetWarning,0824.3,5.00,000.00,023.3,022.5,000.0,031.9,025.2,11.9,0000.0,0004.76,0019.97,0002.56
2024-03-12 03:34:00,SystemResetWarning,0824.4,5.01,000.00,023.3,022.5,000.0,031.9,025.1,12.0,0000.0,0004.73,0020.67,0002.53
2024-03-12 03:35:00,SystemResetWarning,0824.4,5.00,000.00,023.3,022.5,000.0,031.9,025.1,11.9,0000.0,0004.73,0020.46,0002.50
2024-03-12 03:36:00,SystemResetWarning,0824.4,5.01,000.00,023.3,022.5,000.0,031.9,025.1,12.0,0000.0,0004.68,0020.03,0002.44
2024-03-12 03:37:00,SystemResetWarning,0824.3,5.00,000.00,023.3,022.5,000.0,031.9,025.1,12.2,0000.0,0004.59,0019.67,0002.38
2024-03-12 03:38:00,SystemResetWarning,0824.3,5.00,000.00,023.3,022.5,000.0,031.9,025.1,12.2,0000.0,0004.53,0018.94,0002.33
2024-03-12 03:39:00,SystemResetWarning,0824.3,5.00,000.00,023.3,022.5,000.0,031.8,025.1,12.3,0000.0,0004.43,0017.51,0002.29
2024-03-12 03:40:00,SystemResetWarning,0824.3,4.99,000.00,023.3,022.5,000.0,031.8,025.1,12.3,0000.0,0004.43,0016.89,0002.26
2024-03-12 03:41:00,SystemResetWarning,0824.3,4.99,000.00,023.3,022.5,000.0,031.8,025.1,12.2,0000.0,0004.42,0015.43,0002.24
2024-03-12 03:42:00,SystemResetWarning,0824.3,5.01,000.00,023.3,022.5,000.0,031.8,025.1,12.3,0000.0,0004.39,0014.48,0002.20
2024-03-12 03:43:00,SystemResetWarning,0824.3,5.01,000.00,023.3,022.4,000.0,031.8,025.1,12.3,0000.0,0004.33,0014.51,0002.14
2024-03-12 03:44:00,SystemResetWarning,0824.3,5.01,000.00,023.2,022.4,000.0,031.8,025.1,12.3,0000.0,0004.27,0015.09,0002.09
2024-03-12 03:45:00,SystemResetWarning,0824.3,5.00,000.00,023.2,022.4,000.0,031.8,025.0,12.4,0000.0,0004.21,0014.79,0002.05
2024-03-12 03:46:00,SystemResetWarning,0824.3,5.00,000.00,023.2,022.4,000.0,031.8,025.0,12.6,0000.0,0004.14,0014.13,0002.01
2024-03-12 03:47:00,SystemResetWarning,0824.2,4.99,000.00,023.2,022.4,000.0,031.8,025.0,12.7,0000.0,0004.10,0013.03,0001.98
2024-03-12 03:48:00,SystemResetWarning,0824.2,5.00,000.00,023.2,022.3,000.0,031.8,025.0,13.0,0000.0,0004.10,0012.81,0001.93
2024-03-12 03:49:00,SystemResetWarning,0824.2,5.00,000.00,023.2,022.3,000.0,031.8,025.0,12.9,0000.0,0004.10,0013.15,0001.89
2024-03-12 03:50:00,SystemResetWarning,0824.3,5.00,000.00,023.2,022.3,000.0,031.8,024.9,13.0,0000.0,0004.11,0013.54,0001.84
2024-03-12 03:51:00,SystemResetWarning,0824.3,5.00,000.00,023.1,022.2,000.0,031.8,024.9,13.1,0000.0,0003.99,0013.17,0001.78
2024-03-12 03:52:00,SystemResetWarning,0824.4,5.00,000.00,023.1,022.2,000.0,031.7,024.9,13.2,0000.0,0003.91,0013.40,0001.72
2024-03-12 03:53:00,SystemResetWarning,0824.4,5.00,000.00,023.1,022.2,000.0,031.7,024.9,13.4,0000.0,0003.90,0013.58,0001.65
2024-03-12 03:54:00,SystemResetWarning,0824.2,5.00,000.00,023.1,022.2,000.0,031.7,024.9,13.3,0000.0,0003.89,0013.85,0001.61
2024-03-12 03:55:00,SystemResetWarning,0824.2,4.99,000.00,023.1,022.2,000.0,031.7,024.9,13.4,0000.0,0003.87,0013.28,0001.57
2024-03-12 03:56:00,SystemResetWarning,0824.2,5.00,000.00,023.0,022.1,000.0,031.7,024.8,13.6,0000.0,0003.86,0012.42,0001.52
2024-03-12 03:57:00,SystemResetWarning,0824.2,5.00,000.00,023.0,022.1,000.0,031.7,024.8,13.7,0000.0,0003.82,0012.16,0001.49
2024-03-12 03:58:00,SystemResetWarning,0824.2,5.00,000.00,023.0,022.1,000.0,031.7,024.8,13.8,0000.0,0003.76,0013.36,0001.46
2024-03-12 03:59:00,SystemResetWarning,0824.3,5.00,000.00,023.0,022.0,000.0,031.6,024.8,13.8,0000.0,0003.71,0014.10,0001.44
